TELSTAR 11N

Last updated on Tue Oct 15 2024 00:02:38 GMT+0000 (Coordinated Universal Time)

1 34111U 09009A 24288.18565137 -.00000252 00000+0 00000+0 0 9996 2 34111 0.0021 170.0392 0002700 11.3325 231.1644 1.00273826 40117
UTC large
Height (km)
Speed (km/s)
/
Latitude / Longitude
Inclination (degrees)
Orbital Period (minutes)
Azimuth
Elevation
Range (km)
Doppler Factor

Next 0 passes for location: London (51.5072 / 0.1276)

Sorry there are no passes over London.